CZ-4C DEB, 40113

Orbit data source: Space-Track

CZ-4C DEB, 40113 is space debris in LEO originally from a launch on Sat, 09 Aug 2014 UTC launched from the Jiuquan Satellite Launch Center, China (JSC). Debris objects in space refer to the collection of defunct objects orbiting the Earth. Examples of debris include non-operational satellites, rocket bodies, and fragments generated from explosions, collisions, or faulty payload assembly.

Loading next visibility...
Identifier
40113, 2014-047E
Orbit
LEO
Country
Flag of CNCN / PRC
Related business
Manufacturer
CAST
Mission
Spacecraft
Bus & Motor
Unknown
Mass
Unknown
Launch date (UTC)
2014-08-09 (12 years ago)
Launch vehicle
Unknown
Launch site
Jiuquan Satellite Launch Center, China (JSC)
Object type
Payload
Rocket body
Debris
Shape & HBR
Unknown shape, 3.4 m
Radar Cross Section
Large (>1 m²)

Expand to show TLE details & history
Last TLE update: 8 hours ago

TLE from 8 hours ago
0 CZ-4C DEB
1 40113U 14047E   26104.03008301 -.00000067  00000-0  25354-4 0  9990
2 40113  63.3795 205.5810 0387224  15.2575 345.9747 13.44705293573334
Epoch: 2026-04-14T00:43Z
TLE epoch observation values (Epoch: 2026-04-14T00:43:19.172Z)
Latitude
-0°
Longitude
-7.46107°
Altitude
813.607 km
Speed
7.585 km/s
True Right ascension
13h 42m 19s
True Declination
0° 00' 00"
Sunlit
Object was in full shadow at epoch
Visualization orbit readout
Latitude
Unknown
Longitude
Unknown
Altitude
Unknown
Speed
Unknown
Apparent Right ascension
Unknown
Apparent Declination
Unknown
Sunlit
N/A
Visualization observer readout
Local Sidereal Time
15:20:14
Azimuth
Unknown
Elevation
Unknown
Doppler factor
Unknown
Orbital elements
Apogee altitude
1,379.841 km
Perigee altitude
801.424 km
Semi-major axis
7,468.77 km
Eccentricity
0.03872
Inclination
63.3795°
RAAN
205.581°
Arg. of periapsis
15.2575°
True anomaly
344.84653°
Mean anomaly
345.9747°
Eccentric anomaly
345.41605°
Mean motion
3.36256 °/min
Orbital period
107.06 mins
BSTAR
0.000025354
Loading maneuver chart data...
Computing Atmospheric mass density...
Loading historical data...
Loading historical data...
Loading historical data...
Loading historical data...
Loading historical data...
Loading historical data...
Loading historical data...

Documentation

Showing up to 5 results
|